Content
SEND FEEDBACK

United States of America Flag

ACHANG BAY, GUAM


Home > North America > United States > Guam
Elevation: 10 meters     Latitude: 13 16N     Longitude: 144 45E

WEATHER
 
SELECT A DAY
Number of Records: 393,941;   Date Range: 1/1/95 - 3/22/16
 
SHARE

PRINT THIS DATA

[ ← Previous Day ]
WEATHER ALMANAC - 30 NOVEMBER, 2013
[ Next Day → ]
[ °F ]   °C
Weather ElementAverageHighLow
Temperature26.8 °C29.5 °C (12:58 pm)25 °C (9:48 pm)
Dewpoint24.1 °C25.5 °C (8:58 pm)0 °C (10:11 pm)
Humidity86 %100 % (9:48 pm)19 % (10:11 pm)
Barometer1012.2 hPa1014.2 hPa (9:08 am)1009.5 hPa (1:58 pm)
Wind Speed22.4 km/h37 km/h (8:28 pm)
Wind Gust44.4 km/h (8:28 pm)
Weather ElementAverage
Visibility14.6 km
Wind DirectionENE (59.2 °)

Weather ElementTotal
Precipitation6.35 mm
Cooling Degree Days8.9 (Base 18.3)
Growing Degree Days17.3 (Base 10)
Averaged from 50 records on 30 November, 2013
WEATHER CONDITIONS BREAKOUT
WIND DIRECTION BREAKOUT
WEATHER BY HOUR - 30 NOVEMBER, 2013
[ °F ]   °C
Local TimeTemperatureDewpointHumidityBarometerVisibilityWind DirectionWind SpeedGust SpeedPrecipitationEventsConditions
1:58 AM25.5 °C23.6 °C89 %1011.2 hPa16.1 kmENE (60°)13 km/hPartly Cloudy
2:58 AM25.7 °C23.6 °C88 %1010.5 hPa16.1 kmENE (60°)20.4 km/h25.9 km/hScattered Clouds
3:58 AM25.5 °C23 °C86 %1010.5 hPa16.1 kmEast (80°)16.7 km/hClear
4:58 AM25.6 °C23.7 °C89 %1011.2 hPa16.1 kmEast (80°)16.7 km/hScattered Clouds
5:58 AM25.9 °C23.8 °C88 %1011.2 hPa16.1 kmENE (60°)16.7 km/hPartly Cloudy
6:58 AM25.9 °C23.8 °C88 %1011.9 hPa16.1 kmENE (60°)16.7 km/hPartly Cloudy
7:58 AM27.5 °C24.4 °C83 %1012.9 hPa16.1 kmENE (60°)18.5 km/hPartly Cloudy
8:58 AM27.7 °C24.5 °C83 %1012.9 hPa16.1 kmENE (60°)18.5 km/hScattered Clouds
9:08 AM28 °C25 °C84 %1014.2 hPa16.1 kmNE (50°)22.2 km/hMostly Cloudy
9:13 AM28 °C25 °C84 %1014.2 hPa16.1 kmNE (50°)22.2 km/hMostly Cloudy
9:23 AM29 °C25 °C79 %1014.2 hPa16.1 kmNE (50°)24.1 km/hMostly Cloudy
9:33 AM28 °C25 °C84 %1014.2 hPa16.1 kmENE (60°)22.2 km/hMostly Cloudy
9:38 AM28 °C25 °C84 %1014.2 hPa16.1 kmENE (60°)16.7 km/h29.6 km/hMostly Cloudy
9:58 AM28.8 °C24.9 °C79 %1012.9 hPa16.1 kmEast (80°)22.2 km/hPartly Cloudy
10:58 AM29.3 °C24.5 °C75 %1012.2 hPa16.1 kmNE (50°)24.1 km/hScattered Clouds
11:58 AM29.3 °C24.8 °C77 %1011.2 hPa16.1 kmENE (60°)25.9 km/hPartly Cloudy
12:58 PM29.5 °C25 °C77 %1010.2 hPa16.1 kmENE (60°)20.4 km/hScattered Clouds
1:13 PM29 °C25 °C79 %1011.2 hPa16.1 kmNE (50°)24.1 km/hMostly Cloudy
1:28 PM29 °C25 °C79 %1010.5 hPa16.1 kmENE (70°)25.9 km/hScattered Clouds
1:58 PM28.7 °C24.6 °C78 %1009.5 hPa16.1 kmNE (50°)20.4 km/hPartly Cloudy
2:53 PM28 °C24 °C79 %1010.2 hPa16.1 kmENE (60°)20.4 km/hMostly Cloudy
2:58 PM28.1 °C24.3 °C80 %1009.5 hPa16.1 kmENE (60°)24.1 km/hScattered Clouds
3:58 PM28.6 °C24.7 °C79 %1009.5 hPa16.1 kmNE (50°)24.1 km/hScattered Clouds
4:58 PM27.9 °C24.3 °C81 %1009.8 hPa16.1 kmENE (60°)24.1 km/hScattered Clouds
5:58 PM27.3 °C24.2 °C83 %1011.2 hPa16.1 kmENE (60°)25.9 km/hScattered Clouds
6:08 PM27 °C24 °C84 %1011.9 hPa16.1 kmNE (50°)24.1 km/hMostly Cloudy
6:18 PM27 °C24 °C84 %1011.9 hPa16.1 kmNE (50°)25.9 km/hScattered Clouds
6:58 PM27.1 °C24.6 °C86 %1011.5 hPa16.1 kmENE (60°)24.1 km/hScattered Clouds
7:16 PM27 °C25 °C89 %1012.5 hPa16.1 kmNE (50°)20.4 km/hRainLight Rain
7:27 PM27 °C25 °C89 %1012.5 hPa16.1 kmNE (50°)25.9 km/hPartly Cloudy
7:58 PM27.1 °C25 °C88 %1011.9 hPa16.1 kmNE (50°)24.1 km/h37 km/h0 mmClear
8:28 PM27 °C25 °C89 %1012.9 hPa16.1 kmNE (40°)37 km/h44.4 km/hLight Drizzle
8:45 PM26 °C25 °C94 %1013.2 hPa16.1 kmNE (50°)24.1 km/hPartly Cloudy
8:58 PM26.3 °C25.5 °C95 %1012.9 hPa16.1 kmENE (60°)25.9 km/h0 mmPartly Cloudy
9:13 PM27 °C25 °C89 %1013.5 hPa16.1 kmNE (50°)29.6 km/h42.6 km/hRain-ThunderstormLight Rain
9:33 PM26 °C25 °C94 %1013.2 hPa8 kmNE (50°)27.8 km/h38.9 km/hRain-ThunderstormLight Thunderstorms and Rain
9:38 PM26 °C25 °C94 %1013.2 hPa12.9 kmNE (50°)29.6 km/hRain-ThunderstormLight Thunderstorms and Rain
9:48 PM25 °C25 °C100 %1013.5 hPa4 kmENE (70°)27.8 km/h42.6 km/hRainRain
9:53 PM25 °C25 °C100 %1013.5 hPa4 kmENE (60°)18.5 km/h42.6 km/hRainLight Rain
9:58 PM25 °C25 °C100 %1012.9 hPa11.3 kmEast (80°)20.4 km/h3.56 mmRainLight Rain
10:07 PM25 °C25 °C100 %1013.5 hPa16.1 kmENE (70°)29.6 km/hMostly Cloudy
10:11 PM25 °C0 °C19 %1013.5 hPa16.1 kmENE (60°)25.9 km/hRainLight Rain
10:16 PM25 °C24 °C94 %1013.5 hPa16.1 kmENE (70°)24.1 km/hRainLight Rain
10:26 PM25 °C24 °C94 %1013.2 hPa6.4 kmENE (70°)14.8 km/hRainLight Rain
10:36 PM25 °C24 °C94 %1013.2 hPa9.7 kmEast (80°)11.1 km/hRainLight Rain
10:51 PM25 °C24 °C94 %1013.2 hPa8 kmENE (70°)16.7 km/hRainRain
10:58 PM25 °C24 °C94 %1012.2 hPa9.7 kmENE (60°)16.7 km/h2.54 mmRainLight Rain
11:03 PM25 °C24 °C94 %1012.9 hPa16.1 kmENE (60°)16.7 km/hRainLight Rain
11:28 PM26 °C25 °C94 %1012.9 hPa16.1 kmNE (50°)20.4 km/hClear
11:58 PM25.9 °C24.3 °C91 %1011.9 hPa16.1 kmNE (50°)27.8 km/h0.25 mmClear
Hourly data recorded from PGUA, located 0 kilometers away from Achang Bay, Guam




STORIES FROM OUR PARTNERS